Waarnemingen

Advertentie
Mijn weer
Strasbourg, Frankrijk (7190): temperatuur & dauwpunt: 19.02.2018 22:00:00 - 25.02.2018 22:00:00 (CET)Strasbourg, Frankrijk (7190): temperatuur 5cm: 19.02.2018 22:00:00 - 25.02.2018 22:00:00 (CET)Strasbourg, Frankrijk (7190): temperatuur -20cm & temperatuur -100cm: 19.02.2018 22:00:00 - 25.02.2018 22:00:00 (CET)Strasbourg, Frankrijk (7190): windsnelheid & windstoten: 19.02.2018 22:00:00 - 25.02.2018 22:00:00 (CET)Strasbourg, Frankrijk (7190): windrichting: 19.02.2018 22:00:00 - 25.02.2018 22:00:00 (CET)Strasbourg, Frankrijk (7190): luchtdruk: 19.02.2018 22:00:00 - 25.02.2018 22:00:00 (CET)Strasbourg, Frankrijk (7190): zicht: 19.02.2018 22:00:00 - 25.02.2018 22:00:00 (CET)Strasbourg, Frankrijk (7190): Zonneschijnduur: 19.02.2018 22:00:00 - 25.02.2018 22:00:00 (CET)Strasbourg, Frankrijk (7190): neerslag: 19.02.2018 22:00:00 - 25.02.2018 22:00:00 (CET)
Datum & Tijd tt [°C] td [°C] tt 5cm [°C] tt -20cm [°C] tt -100cm [°C] ff [km/u] ff [kn] fx [km/u] fx [kn] dd ppp [hPa] vv [km] sd [min] rr [mm]
25.02.2018 22:00:00 - - - - - - - - - - - - - -
25.02.2018 21:00:00 -3,0 -14,1 -4,1 1,7 5,6 21 11 39 21 NO 1024,3 38 0 0,0
25.02.2018 20:00:00 -2,6 -14,4 -3,5 1,7 5,6 25 13 43 23 NO 1024,1 38 0 0,0
25.02.2018 19:00:00 -2,1 -14,9 -3,0 1,7 5,6 29 16 43 23 NNO 1023,7 42 0 0,0
25.02.2018 18:00:00 -1,4 -14,9 -1,9 1,7 5,6 29 15 49 27 NNO 1023,2 39 42 0,0
25.02.2018 17:00:00 -0,3 -14,7 0,1 1,6 5,6 32 17 51 27 NNO 1022,6 14 60 0,0
25.02.2018 16:00:00 0,4 -13,7 4,5 1,5 5,6 32 17 57 31 NNO 1022,6 10 60 0,0
25.02.2018 15:00:00 0,8 -12,6 4,8 1,4 5,5 36 19 53 28 NNO 1022,6 11 60 0,0
25.02.2018 14:00:00 0,7 -13,4 3,7 1,5 5,6 35 19 55 30 NNO 1023,0 11 60 0,0
25.02.2018 13:00:00 0,3 -13,1 4,1 1,5 5,6 32 17 46 25 NNO 1023,4 11 60 0,0
25.02.2018 12:00:00 -0,7 -12,7 2,4 1,5 5,6 30 16 48 26 NNO 1024,0 14 60 0,0
25.02.2018 11:00:00 -2,1 -12,5 0,7 1,6 5,6 33 18 46 25 NO 1024,3 16 60 0,0
25.02.2018 10:00:00 -3,1 -11,8 -1,6 1,7 5,6 29 16 44 24 NO 1024,5 16 60 0,0
25.02.2018 09:00:00 -4,4 -11,7 -3,7 1,7 5,6 34 18 48 26 NO 1024,6 17 60 0,0
25.02.2018 08:00:00 -5,1 -11,7 -6,1 1,8 5,6 25 13 43 23 NNO 1024,3 19 17 0,0
25.02.2018 07:00:00 -5,3 -11,7 -6,2 1,8 5,6 26 14 40 22 NNO 1023,5 29 0 0,0
25.02.2018 06:00:00 -4,7 -11,7 -5,4 1,9 5,6 27 14 41 22 NO 1022,9 32 0 0,0
25.02.2018 05:00:00 -4,2 -11,5 -5,0 2,0 5,6 26 14 39 21 NO 1022,7 34 0 0,0
25.02.2018 04:00:00 -3,6 -11,1 -4,4 2,1 5,6 26 14 41 22 NO 1022,3 33 0 0,0
25.02.2018 03:00:00 -2,6 -10,4 -3,6 2,2 5,6 19 10 30 16 NO 1021,8 32 0 0,0
25.02.2018 02:00:00 -1,9 -10,2 -3,0 2,4 5,6 20 11 34 18 NO 1021,8 32 0 0,0
25.02.2018 01:00:00 -2,0 -9,6 -3,4 2,5 5,6 16 9 29 16 NO 1021,7 30 0 0,0
25.02.2018 00:00:00 -1,4 -9,5 -2,4 2,6 5,7 18 10 35 19 NNO 1021,4 30 0 0,0
24.02.2018 23:00:00 -0,8 -9,2 -1,9 2,7 5,6 24 13 38 21 NO 1021,2 31 0 0,0
24.02.2018 22:00:00 -0,3 -8,3 -1,2 2,8 5,6 27 15 45 24 NO 1020,8 31 0 0,0
24.02.2018 21:00:00 0,3 -7,5 -0,5 2,9 5,6 29 15 50 27 NNO 1020,2 28 0 0,0
24.02.2018 20:00:00 1,0 -7,3 0,1 3,0 5,6 35 19 50 27 NNO 1019,7 26 0 0,0
24.02.2018 19:00:00 2,0 -8,2 1,0 2,9 5,6 32 17 50 27 NNO 1019,1 26 0 0,0
24.02.2018 18:00:00 3,3 -8,4 2,5 2,8 5,7 34 18 58 31 NO 1018,3 27 41 0,0
24.02.2018 17:00:00 4,8 -9,0 4,5 2,5 5,6 33 18 55 30 NO 1017,5 17 60 0,0
24.02.2018 16:00:00 5,9 -10,4 9,0 2,1 5,7 35 19 52 28 NO 1016,9 14 60 0,0
24.02.2018 15:00:00 6,3 -10,5 9,9 1,8 5,6 31 17 49 27 NO 1016,6 10 60 0,0
24.02.2018 14:00:00 5,9 -8,4 8,5 1,6 5,7 32 17 46 25 NNO 1016,6 8 60 0,0
24.02.2018 13:00:00 4,5 -7,6 7,3 1,6 5,7 34 19 46 25 NNO 1017,1 7 60 0,0
24.02.2018 12:00:00 2,6 -7,6 4,7 1,7 5,7 31 17 50 27 NNO 1017,5 7 60 0,0
24.02.2018 11:00:00 0,5 -7,3 2,5 1,7 5,7 36 19 52 28 NO 1017,9 6 60 0,0
24.02.2018 10:00:00 -0,9 -7,3 0,1 1,7 5,7 36 19 49 27 NO 1018,1 9 60 0,0
24.02.2018 09:00:00 -2,0 -7,3 -2,4 1,8 5,7 30 16 47 26 NO 1018,0 8 60 0,0
24.02.2018 08:00:00 -3,0 -7,7 -3,6 1,8 5,7 30 16 45 24 NNO 1017,7 9 15 0,0
24.02.2018 07:00:00 -2,9 -7,8 -3,5 1,9 5,7 30 16 43 23 NNO 1017,2 9 0 0,0
24.02.2018 06:00:00 -2,6 -7,7 -3,3 2,0 5,7 25 14 40 21 NNO 1016,9 10 0 0,0
24.02.2018 05:00:00 -2,2 -7,5 -3,1 2,1 5,7 26 14 37 20 NO 1016,8 11 0 0,0
24.02.2018 04:00:00 -2,1 -7,2 -2,9 2,1 5,7 19 11 29 16 NNO 1016,6 11 0 0,0
24.02.2018 03:00:00 -1,7 -6,8 -2,5 2,2 5,7 18 10 37 20 NNO 1016,7 11 0 0,0
24.02.2018 02:00:00 -0,9 -6,9 -1,4 2,3 5,7 26 14 37 20 NO 1017,0 12 0 0,0
24.02.2018 01:00:00 -0,3 -6,5 -0,8 2,4 5,7 27 14 37 20 NO 1017,0 13 0 0,0
24.02.2018 00:00:00 -0,3 -6,7 -0,8 2,4 5,7 22 12 36 19 NO 1016,8 14 0 0,0
23.02.2018 23:00:00 0,3 -6,8 0,0 2,5 5,7 26 14 39 21 NO 1016,6 14 0 0,0
23.02.2018 22:00:00 0,7 -6,9 0,3 2,5 5,7 21 11 37 20 NO 1016,9 14 0 0,0
23.02.2018 21:00:00 1,2 -6,6 0,8 2,5 5,7 27 14 39 21 NO 1016,6 15 0 0,0
23.02.2018 20:00:00 1,5 -5,9 1,2 2,6 5,7 24 13 41 22 NO 1016,5 14 0 0,0
23.02.2018 19:00:00 1,6 -5,8 1,2 2,6 5,7 21 11 36 19 NO 1016,6 13 0 0,0
23.02.2018 18:00:00 1,6 -5,6 1,4 2,5 5,7 19 10 32 18 NO 1016,5 12 0 0,0
23.02.2018 17:00:00 1,8 -5,4 1,8 2,4 5,7 24 13 41 22 NO 1016,2 12 0 0,0
23.02.2018 16:00:00 1,5 -5,7 1,7 2,3 5,7 26 14 46 25 NO 1016,2 13 0 0,0
23.02.2018 15:00:00 1,3 -5,8 1,8 2,2 5,7 29 16 45 25 NO 1016,4 12 0 0,0
23.02.2018 14:00:00 1,4 -5,7 2,3 2,0 5,7 27 15 44 24 NO 1016,4 11 0 0,0
23.02.2018 13:00:00 0,6 -6,3 2,1 2,0 5,7 27 15 43 23 NNO 1016,8 14 0 0,0
23.02.2018 12:00:00 0,0 -6,6 1,2 2,0 5,7 30 16 44 24 NO 1017,3 15 5 0,0
23.02.2018 11:00:00 -0,6 -6,8 -0,3 2,0 5,8 29 16 44 24 NO 1017,4 15 0 0,0
23.02.2018 10:00:00 -1,2 -7,4 -0,6 2,0 5,8 31 17 45 24 NO 1017,2 16 0 0,0
23.02.2018 09:00:00 -1,5 -7,2 -1,5 2,1 5,8 25 14 43 23 NO 1017,0 16 0 0,0
23.02.2018 08:00:00 -1,6 -7,5 -1,7 2,1 5,7 28 15 43 23 NO 1016,7 20 0 0,0
23.02.2018 07:00:00 -1,3 -7,7 -1,5 2,2 5,8 28 15 44 24 NO 1016,2 23 0 0,0
23.02.2018 06:00:00 -1,0 -7,4 -1,1 2,3 5,8 31 17 50 27 NO 1016,2 24 0 0,0
23.02.2018 05:00:00 -0,6 -7,4 -0,8 2,3 5,7 31 17 48 26 NO 1016,4 26 0 0,0
23.02.2018 04:00:00 -0,4 -7,2 -0,6 2,4 5,8 31 17 46 25 NO 1016,3 27 0 0,0
23.02.2018 03:00:00 -0,2 -7,0 -0,4 2,4 5,8 31 17 45 24 NNO 1016,6 28 0 0,0
23.02.2018 02:00:00 -0,1 -6,9 -0,3 2,5 5,8 30 16 45 24 NNO 1017,0 27 0 0,0
23.02.2018 01:00:00 0,2 -6,9 -0,1 2,6 5,7 29 15 47 26 NO 1016,9 25 0 0,0
23.02.2018 00:00:00 0,4 -6,7 0,2 2,6 5,8 32 18 51 28 NNO 1017,0 24 0 0,0
22.02.2018 23:00:00 0,8 -6,5 0,5 2,7 5,8 34 18 49 27 NNO 1017,1 24 0 0,0
22.02.2018 22:00:00 1,2 -6,4 0,8 2,7 5,8 33 18 52 28 NO 1016,9 26 0 0,0
22.02.2018 21:00:00 1,6 -6,7 1,2 2,8 5,8 32 17 49 26 NNO 1016,8 30 0 0,0
22.02.2018 20:00:00 1,7 -7,1 1,3 2,8 5,8 26 14 46 25 NNO 1017,1 34 0 0,0
22.02.2018 19:00:00 1,8 -7,3 1,4 2,7 5,8 26 14 44 24 NO 1017,0 38 0 0,0
22.02.2018 18:00:00 2,0 -7,4 1,7 2,6 5,8 27 14 49 26 NO 1016,7 40 0 0,0
22.02.2018 17:00:00 2,1 -7,8 2,0 2,5 5,8 32 18 56 30 NO 1016,7 30 0 0,0
22.02.2018 16:00:00 2,4 -7,2 3,3 2,2 5,8 36 20 54 29 NO 1016,5 31 26 0,0
22.02.2018 15:00:00 3,3 -6,1 5,2 1,9 5,8 39 21 58 31 NO 1016,2 11 54 0,0
22.02.2018 14:00:00 3,5 -5,2 3,6 1,9 5,7 33 18 54 29 NO 1016,3 10 38 0,0
22.02.2018 13:00:00 1,4 -5,7 3,6 1,9 5,8 37 20 54 29 NNO 1017,1 10 31 0,0
22.02.2018 12:00:00 0,7 -5,5 1,7 2,0 5,8 31 17 48 26 NNO 1017,8 11 13 0,0
22.02.2018 11:00:00 0,1 -5,5 0,3 2,0 5,8 36 19 52 28 NNO 1018,1 6 14 0,0
22.02.2018 10:00:00 -0,8 -5,6 -0,6 2,1 5,8 29 15 42 23 NO 1018,1 11 0 0,0
22.02.2018 09:00:00 -1,3 -6,1 -1,4 2,1 5,8 31 17 49 27 NO 1018,3 11 7 0,0
22.02.2018 08:00:00 -1,5 -6,3 -2,6 2,3 5,8 31 17 46 25 NO 1018,1 12 12 0,0
22.02.2018 07:00:00 -2,0 -6,2 -2,9 2,4 5,8 32 17 48 26 NO 1017,8 11 0 0,0
22.02.2018 06:00:00 -1,9 -5,7 -2,8 2,5 5,8 23 12 37 20 NNO 1018,0 10 0 0,0
22.02.2018 05:00:00 -1,8 -5,6 -2,7 2,6 5,8 18 10 37 20 NNO 1018,1 9 0 0,0
22.02.2018 04:00:00 -1,6 -5,5 -2,8 2,7 5,8 19 10 31 17 NNO 1018,3 9 0 0,0
22.02.2018 03:00:00 -1,3 -5,2 -2,3 2,8 5,8 19 11 40 21 NNO 1018,6 9 0 0,0
22.02.2018 02:00:00 -0,8 -5,4 -1,7 3,0 5,8 25 14 41 22 NNO 1018,7 9 0 0,0
22.02.2018 01:00:00 -0,4 -5,2 -1,4 3,1 5,8 24 13 45 24 NNO 1019,1 9 0 0,0
22.02.2018 00:00:00 0,3 -5,1 -0,7 3,3 5,8 29 16 43 23 NNO 1019,3 9 0 0,0
21.02.2018 23:00:00 0,7 -5,1 -0,6 3,4 5,8 25 14 36 19 NO 1019,4 11 0 0,0
21.02.2018 22:00:00 0,6 -4,2 -1,3 3,6 5,8 17 9 24 13 NNO 1019,9 10 0 0,0
21.02.2018 21:00:00 0,7 -4,0 -1,1 3,7 5,8 12 7 19 11 NNO 1020,0 10 0 0,0
21.02.2018 20:00:00 1,4 -3,7 0,1 3,7 5,8 13 7 31 17 N 1020,0 11 0 0,0
21.02.2018 19:00:00 2,0 -3,9 0,6 3,7 5,8 14 8 35 19 NNO 1019,7 9 0 0,0
21.02.2018 18:00:00 3,0 -3,2 1,8 3,6 5,8 16 9 40 22 NNO 1019,2 9 36 0,0
21.02.2018 17:00:00 4,6 -3,7 4,6 3,4 5,8 27 15 41 22 NNO 1018,8 9 41 0,0
21.02.2018 16:00:00 5,1 -2,5 7,9 3,0 5,8 22 12 41 22 NNO 1018,9 9 60 0,0
21.02.2018 15:00:00 4,8 -1,7 8,0 2,7 5,8 28 15 45 24 NO 1019,1 7 60 0,0
21.02.2018 14:00:00 4,3 -2,3 5,6 2,5 5,8 27 14 42 23 NNO 1020,0 6 53 0,0
21.02.2018 13:00:00 3,4 -2,4 6,2 2,3 5,8 24 13 39 21 NNO 1020,5 3,9 51 0,0
21.02.2018 12:00:00 2,5 -2,6 4,1 2,3 5,8 26 14 44 24 N 1021,0 6 45 0,0
21.02.2018 11:00:00 2,1 -2,6 4,8 2,4 5,8 27 15 38 21 NNO 1021,4 5 56 0,0
21.02.2018 10:00:00 1,5 -2,3 4,6 2,4 5,8 20 11 34 19 N 1021,1 5 60 0,0
21.02.2018 09:00:00 0,7 -3,0 -0,2 2,5 5,8 8 4 16 8 NNW 1020,8 6 60 0,0
21.02.2018 08:00:00 -0,6 -3,6 -1,7 2,6 5,8 9 5 29 16 NO 1021,1 5 6 0,0
21.02.2018 07:00:00 -0,7 -3,7 -1,8 2,7 5,8 20 11 38 20 NO 1021,1 6 0 0,0
21.02.2018 06:00:00 -0,6 -4,0 -1,7 2,8 5,8 22 12 36 20 NNO 1021,0 6 0 0,0
21.02.2018 05:00:00 -0,2 -3,7 -0,8 2,9 5,8 24 13 38 20 NNO 1020,6 7 0 0,0
21.02.2018 04:00:00 0,0 -3,7 -0,8 3,0 5,8 16 8 26 14 NNO 1020,4 8 0 0,0
21.02.2018 03:00:00 -0,3 -3,8 -1,2 3,1 5,8 18 10 29 16 NNO 1020,0 7 0 0,0
21.02.2018 02:00:00 0,2 -3,9 -0,7 3,1 5,8 16 9 28 15 NNO 1019,8 8 0 0,0
21.02.2018 01:00:00 0,7 -3,6 0,3 3,3 5,8 17 9 28 15 NNO 1019,4 9 0 0,0
21.02.2018 00:00:00 0,9 -2,5 0,4 3,3 5,8 15 8 20 11 N 1019,0 7 0 0,0
20.02.2018 23:00:00 1,2 -2,0 0,5 3,4 5,8 10 6 15 8 N 1018,9 8 0 0,0
20.02.2018 22:00:00 1,1 -2,1 -0,1 3,5 5,8 9 5 13 7 N 1018,7 10 0 0,0
20.02.2018 21:00:00 0,7 -2,0 0,1 3,5 5,8 8 4 13 7 NW 1018,5 11 0 0,0
20.02.2018 20:00:00 1,6 -2,0 1,1 3,5 5,8 9 5 11 6 NW 1018,4 12 0 0,0
20.02.2018 19:00:00 2,3 -3,4 1,7 3,5 5,9 7 4 13 7 NO 1018,1 16 0 0,0
20.02.2018 18:00:00 2,7 -3,4 2,3 3,4 5,8 11 6 21 12 NNO 1017,7 18 15 0,0
20.02.2018 17:00:00 3,2 -4,5 4,1 3,3 5,8 13 7 22 12 NO 1016,9 20 60 0,0
20.02.2018 16:00:00 2,9 -4,3 3,7 3,1 5,8 8 4 19 10 NO 1017,0 21 0 0,0
20.02.2018 15:00:00 2,5 -4,5 3,6 3,0 5,9 10 5 19 10 N 1017,3 20 0 0,0
20.02.2018 14:00:00 2,6 -4,8 4,3 2,8 5,9 8 4 18 10 N 1017,4 22 0 0,0
20.02.2018 13:00:00 2,3 -2,2 3,9 2,6 5,8 11 6 18 10 N 1017,5 10 0 0,0
20.02.2018 12:00:00 1,8 -1,3 3,1 2,6 5,8 9 5 18 10 N 1017,4 7 0 0,0
20.02.2018 11:00:00 1,0 -2,4 2,3 2,5 5,8 12 7 17 9 N 1017,5 8 0 0,0
20.02.2018 10:00:00 0,6 -3,3 1,2 2,6 5,9 11 6 19 10 N 1017,6 12 0 0,0
20.02.2018 09:00:00 0,3 -4,0 -0,2 2,6 5,9 14 8 21 11 NNO 1017,7 14 0 0,0
20.02.2018 08:00:00 -0,1 -3,1 -0,5 2,7 5,9 14 7 18 10 NNO 1017,5 9 0 0,0
20.02.2018 07:00:00 -0,1 -3,1 -0,4 2,7 5,9 10 5 16 9 NNO 1017,2 9 0 0,0
20.02.2018 06:00:00 0,0 -2,4 -0,3 2,8 5,9 10 5 16 9 NNO 1016,9 7 0 0,0
20.02.2018 05:00:00 0,2 -1,6 -0,2 2,8 5,9 10 5 15 8 N 1017,0 6 0 0,0
20.02.2018 04:00:00 0,3 -1,5 0,0 2,9 5,8 9 5 14 8 N 1017,0 5 0 0,0
20.02.2018 03:00:00 0,4 -1,5 0,1 2,9 5,9 7 4 11 6 N 1017,0 6 0 0,0
20.02.2018 02:00:00 0,6 -1,2 0,3 3,0 5,9 8 5 11 6 NNW 1017,2 5 0 0,0
20.02.2018 01:00:00 0,8 -1,0 0,2 3,0 5,9 6 4 8 4 N 1017,5 6 0 0,0
20.02.2018 00:00:00 1,0 -1,1 0,6 3,1 5,9 4 2 8 4 NNO 1017,5 6 0 0,0
19.02.2018 23:00:00 1,1 -1,0 0,6 3,1 5,9 5 3 8 4 N 1017,7 7 0 0,0
19.02.2018 22:00:00 1,3 -0,9 0,8 3,2 5,9 4 2 6 3 N 1018,3 8 0 0,0

tt = temperatuur
td = dauwpunt
tt 5cm = temperatuur 5cm
tt -20cm = temperatuur -20cm
tt -100cm = temperatuur -100cm
ff = windsnelheid
fx = windstoten
dd = windrichting
ppp = luchtdruk
vv = zicht
sd = Zonneschijnduur
rr = neerslag

Weerstations in de omgeving